WEN739 CYHM-KPWK

Flight info

Callsign WEN739
Flight time 1h 26m
Altitude 24000
Route DCT DERLO DCT HOCKE DCT FNT DCT PMM DCT FIYER DCT OBK DCT
Aircraft DH8D/M-SDE2E3FGRY/H

Departure

Time 2026-04-28 20:16
Airport John C. Munro Hamilton International Airport (CYHM)

Arrival

Time 2026-04-28 21:42
Airport Chicago Executive Airport (KPWK)
Time Latitude Longitude Altitude Speed Heading
2026-04-28 19:50 43.16369 -79.92501 755 ft 0 kts 285°
2026-04-28 20:08 43.16369 -79.92502 755 ft 1 kts 285°
2026-04-28 20:09 43.16370 -79.92506 755 ft 2 kts 299°
2026-04-28 20:09 43.16444 -79.92474 755 ft 12 kts 24°
2026-04-28 20:09 43.16538 -79.92458 755 ft 15 kts 348°
2026-04-28 20:09 43.16580 -79.92484 755 ft 15 kts 331°
2026-04-28 20:10 43.16649 -79.92537 756 ft 14 kts 330°
2026-04-28 20:10 43.16729 -79.92599 757 ft 13 kts 330°
2026-04-28 20:10 43.16803 -79.92658 757 ft 13 kts 330°
2026-04-28 20:10 43.16856 -79.92699 758 ft 16 kts 329°
2026-04-28 20:11 43.16960 -79.92781 759 ft 19 kts 330°
2026-04-28 20:11 43.17090 -79.92821 760 ft 22 kts 39°
2026-04-28 20:11 43.17200 -79.92649 756 ft 27 kts 50°
2026-04-28 20:11 43.17324 -79.92448 752 ft 27 kts 52°
2026-04-28 20:12 43.17446 -79.92258 748 ft 26 kts 47°
2026-04-28 20:12 43.17569 -79.92077 744 ft 26 kts 46°
2026-04-28 20:12 43.17686 -79.91895 742 ft 25 kts 56°
2026-04-28 20:12 43.17719 -79.91762 742 ft 16 kts 81°
2026-04-28 20:13 43.17722 -79.91787 742 ft 7 kts 349°
2026-04-28 20:13 43.17744 -79.91816 742 ft 3 kts 227°
2026-04-28 20:13 43.17725 -79.91833 742 ft 8 kts 226°
2026-04-28 20:13 43.17719 -79.91841 742 ft 0 kts 227°
2026-04-28 20:15 43.17719 -79.91842 742 ft 0 kts 227°
2026-04-28 20:15 43.17520 -79.92152 746 ft 86 kts 228°
2026-04-28 20:15 43.16987 -79.92983 794 ft 137 kts 226°
2026-04-28 20:16 43.16391 -79.94061 1209 ft 147 kts 231°
2026-04-28 20:16 43.15820 -79.95258 1767 ft 155 kts 236°
2026-04-28 20:16 43.15323 -79.96546 2426 ft 156 kts 239°
2026-04-28 20:16 43.14707 -79.97707 3114 ft 155 kts 231°
2026-04-28 20:17 43.14006 -79.98793 3778 ft 155 kts 231°
2026-04-28 20:17 43.13262 -79.99895 4317 ft 161 kts 230°
2026-04-28 20:17 43.12501 -80.00991 4842 ft 162 kts 230°
2026-04-28 20:17 43.11720 -80.02090 5395 ft 162 kts 231°
2026-04-28 20:18 43.10929 -80.03200 5873 ft 164 kts 234°
2026-04-28 20:18 43.10573 -80.04074 6202 ft 160 kts 258°
2026-04-28 20:18 43.10449 -80.06081 6859 ft 161 kts 267°
2026-04-28 20:18 43.10401 -80.07600 7349 ft 161 kts 268°
2026-04-28 20:19 43.10355 -80.09110 7847 ft 162 kts 268°
2026-04-28 20:19 43.10307 -80.10636 8332 ft 163 kts 268°
2026-04-28 20:20 43.10169 -80.14947 9677 ft 163 kts 268°
2026-04-28 20:20 43.10119 -80.16484 10125 ft 164 kts 268°
2026-04-28 20:20 43.10068 -80.18046 10524 ft 167 kts 267°
2026-04-28 20:20 43.10016 -80.19631 10923 ft 170 kts 268°
2026-04-28 20:21 43.09962 -80.21235 11347 ft 170 kts 268°
2026-04-28 20:21 43.09907 -80.22863 11735 ft 172 kts 268°
2026-04-28 20:21 43.09852 -80.24490 12114 ft 174 kts 267°
2026-04-28 20:21 43.09796 -80.26146 12450 ft 178 kts 268°
2026-04-28 20:22 43.09739 -80.27825 12812 ft 178 kts 267°
2026-04-28 20:22 43.09682 -80.29507 13171 ft 179 kts 268°
2026-04-28 20:22 43.09623 -80.31211 13485 ft 182 kts 268°
2026-04-28 20:22 43.09564 -80.32933 13835 ft 183 kts 268°
2026-04-28 20:23 43.09503 -80.34684 14169 ft 184 kts 268°
2026-04-28 20:23 43.09443 -80.36428 14476 ft 186 kts 268°
2026-04-28 20:23 43.09381 -80.38181 14821 ft 186 kts 268°
2026-04-28 20:23 43.09320 -80.39942 15123 ft 187 kts 268°
2026-04-28 20:24 43.09258 -80.41715 15419 ft 189 kts 268°
2026-04-28 20:24 43.09195 -80.43501 15728 ft 189 kts 268°
2026-04-28 20:24 43.09129 -80.45356 15806 ft 203 kts 268°
2026-04-28 20:24 43.09057 -80.47351 15877 ft 216 kts 268°
2026-04-28 20:25 43.08981 -80.49456 15945 ft 229 kts 268°
2026-04-28 20:25 43.08899 -80.51671 16096 ft 237 kts 268°
2026-04-28 20:25 43.08816 -80.53921 16400 ft 240 kts 268°
2026-04-28 20:25 43.08732 -80.56204 16703 ft 242 kts 268°
2026-04-28 20:26 43.08647 -80.58494 17003 ft 244 kts 268°
2026-04-28 20:26 43.08561 -80.60805 17336 ft 244 kts 268°
2026-04-28 20:26 43.08474 -80.63147 17594 ft 248 kts 268°
2026-04-28 20:26 43.08387 -80.65489 17912 ft 249 kts 268°
2026-04-28 20:27 43.08299 -80.67844 18215 ft 250 kts 267°
2026-04-28 20:27 43.08211 -80.70199 18533 ft 250 kts 268°
2026-04-28 20:27 43.08121 -80.72565 18843 ft 250 kts 268°
2026-04-28 20:27 43.08032 -80.74920 19133 ft 252 kts 267°
2026-04-28 20:28 43.07942 -80.77297 19446 ft 250 kts 267°
2026-04-28 20:28 43.07850 -80.79686 19700 ft 253 kts 267°
2026-04-28 20:28 43.07759 -80.82060 20043 ft 250 kts 267°
2026-04-28 20:28 43.07666 -80.84448 20184 ft 255 kts 268°
2026-04-28 20:29 43.07635 -80.85253 20270 ft 255 kts 268°
2026-04-28 20:29 43.07479 -80.89228 20687 ft 254 kts 267°
2026-04-28 20:29 43.07385 -80.91627 20895 ft 255 kts 267°
2026-04-28 20:29 43.07290 -80.94024 21113 ft 255 kts 268°
2026-04-28 20:30 43.07193 -80.96462 21304 ft 255 kts 267°
2026-04-28 20:30 43.07098 -80.98858 21538 ft 255 kts 267°
2026-04-28 20:30 43.07001 -81.01276 21680 ft 256 kts 268°
2026-04-28 20:30 43.06904 -81.03678 21923 ft 255 kts 267°
2026-04-28 20:31 43.06806 -81.06092 22055 ft 256 kts 268°
2026-04-28 20:31 43.06708 -81.08504 22277 ft 254 kts 268°
2026-04-28 20:31 43.06797 -81.10909 22390 ft 256 kts 278°
2026-04-28 20:31 43.07104 -81.13306 22552 ft 256 kts 279°
2026-04-28 20:32 43.07420 -81.15695 22731 ft 254 kts 279°
2026-04-28 20:32 43.07722 -81.17982 23209 ft 244 kts 279°
2026-04-28 20:32 43.08020 -81.20258 23341 ft 243 kts 279°
2026-04-28 20:32 43.08314 -81.22522 23457 ft 244 kts 279°
2026-04-28 20:33 43.08605 -81.24783 23653 ft 242 kts 279°
2026-04-28 20:33 43.08896 -81.27051 23720 ft 244 kts 279°
2026-04-28 20:33 43.09188 -81.29341 23841 ft 244 kts 279°
2026-04-28 20:33 43.09479 -81.31623 23881 ft 246 kts 278°
2026-04-28 20:34 43.09772 -81.33938 23892 ft 250 kts 279°
2026-04-28 20:34 43.09969 -81.35496 23897 ft 253 kts 279°
2026-04-28 20:34 43.10370 -81.38672 23893 ft 258 kts 279°
2026-04-28 20:34 43.10674 -81.41092 23892 ft 261 kts 279°
2026-04-28 20:35 43.10982 -81.43543 23893 ft 264 kts 279°
2026-04-28 20:35 43.11295 -81.46042 23897 ft 268 kts 279°
2026-04-28 20:35 43.11609 -81.48552 23900 ft 271 kts 279°
2026-04-28 20:35 43.11926 -81.51093 23891 ft 274 kts 279°
2026-04-28 20:36 43.12246 -81.53659 23884 ft 276 kts 279°
2026-04-28 20:36 43.12567 -81.56243 23889 ft 278 kts 279°
2026-04-28 20:36 43.12890 -81.58845 23892 ft 280 kts 279°
2026-04-28 20:36 43.13215 -81.61466 23895 ft 282 kts 279°
2026-04-28 20:37 43.13543 -81.64119 23891 ft 283 kts 278°
2026-04-28 20:37 43.13870 -81.66768 23890 ft 284 kts 278°
2026-04-28 20:37 43.14198 -81.69430 23890 ft 285 kts 278°
2026-04-28 20:37 43.14526 -81.72101 23904 ft 286 kts 278°
2026-04-28 20:38 43.14855 -81.74783 23884 ft 288 kts 278°
2026-04-28 20:38 43.15185 -81.77476 23883 ft 289 kts 278°
2026-04-28 20:38 43.15515 -81.80177 23891 ft 289 kts 278°
2026-04-28 20:38 43.15847 -81.82901 23890 ft 290 kts 278°
2026-04-28 20:39 43.16176 -81.85610 23888 ft 290 kts 278°
2026-04-28 20:39 43.16505 -81.88321 23902 ft 290 kts 278°
2026-04-28 20:39 43.16834 -81.91033 23904 ft 291 kts 278°
2026-04-28 20:39 43.17164 -81.93760 23888 ft 292 kts 278°
2026-04-28 20:40 43.17494 -81.96495 23879 ft 293 kts 278°
2026-04-28 20:40 43.17823 -81.99232 23886 ft 293 kts 278°
2026-04-28 20:40 43.18156 -82.02000 23885 ft 293 kts 278°
2026-04-28 20:40 43.18485 -82.04739 23891 ft 293 kts 278°
2026-04-28 20:41 43.18814 -82.07486 23891 ft 294 kts 278°
2026-04-28 20:41 43.19142 -82.10235 23881 ft 294 kts 278°
2026-04-28 20:41 43.19469 -82.12982 23871 ft 294 kts 278°
2026-04-28 20:41 43.19796 -82.15728 23877 ft 294 kts 278°
2026-04-28 20:42 43.20122 -82.18472 23883 ft 294 kts 278°
2026-04-28 20:42 43.20450 -82.21241 23894 ft 294 kts 278°
2026-04-28 20:42 43.20775 -82.23992 23883 ft 294 kts 278°
2026-04-28 20:42 43.21099 -82.26741 23885 ft 294 kts 278°
2026-04-28 20:43 43.21422 -82.29491 23889 ft 294 kts 278°
2026-04-28 20:43 43.21745 -82.32242 23876 ft 294 kts 278°
2026-04-28 20:43 43.22067 -82.34991 23878 ft 294 kts 278°
2026-04-28 20:43 43.22389 -82.37741 23884 ft 294 kts 278°
2026-04-28 20:44 43.22712 -82.40511 23883 ft 294 kts 278°
2026-04-28 20:44 43.23032 -82.43259 23868 ft 294 kts 278°
2026-04-28 20:44 43.23351 -82.46007 23870 ft 293 kts 278°
2026-04-28 20:44 43.23669 -82.48754 23872 ft 293 kts 278°
2026-04-28 20:45 43.23987 -82.51500 23879 ft 293 kts 278°
2026-04-28 20:45 43.24303 -82.54246 23874 ft 293 kts 278°
2026-04-28 20:45 43.24620 -82.56992 23875 ft 293 kts 278°
2026-04-28 20:45 43.24937 -82.59756 23874 ft 293 kts 278°
2026-04-28 20:46 43.25252 -82.62501 23884 ft 293 kts 278°
2026-04-28 20:46 43.25565 -82.65243 23871 ft 293 kts 277°
2026-04-28 20:46 43.25879 -82.67990 23872 ft 293 kts 277°
2026-04-28 20:46 43.26094 -82.70753 23842 ft 293 kts 268°
2026-04-28 20:47 43.25602 -82.73434 23899 ft 293 kts 252°
2026-04-28 20:47 43.24877 -82.76041 23881 ft 294 kts 251°
2026-04-28 20:47 43.24134 -82.78669 23877 ft 295 kts 251°
2026-04-28 20:47 43.23396 -82.81279 23871 ft 295 kts 251°
2026-04-28 20:48 43.22658 -82.83892 23870 ft 296 kts 251°
2026-04-28 20:48 43.21920 -82.86507 23864 ft 296 kts 251°
2026-04-28 20:48 43.21181 -82.89123 23870 ft 296 kts 251°
2026-04-28 20:48 43.20443 -82.91741 23871 ft 296 kts 252°
2026-04-28 20:49 43.19704 -82.94358 23875 ft 296 kts 252°
2026-04-28 20:49 43.18960 -82.96992 23873 ft 296 kts 251°
2026-04-28 20:49 43.18221 -82.99611 23870 ft 296 kts 252°
2026-04-28 20:49 43.17481 -83.02228 23870 ft 296 kts 251°
2026-04-28 20:50 43.16740 -83.04846 23873 ft 296 kts 252°
2026-04-28 20:50 43.16000 -83.07461 23875 ft 296 kts 252°
2026-04-28 20:50 43.15259 -83.10075 23877 ft 296 kts 252°
2026-04-28 20:50 43.14518 -83.12687 23876 ft 296 kts 252°
2026-04-28 20:51 43.13771 -83.15319 23878 ft 296 kts 252°
2026-04-28 20:51 43.13028 -83.17930 23876 ft 296 kts 251°
2026-04-28 20:51 43.12286 -83.20541 23872 ft 296 kts 251°
2026-04-28 20:51 43.11543 -83.23148 23874 ft 295 kts 251°
2026-04-28 20:52 43.10800 -83.25754 23880 ft 295 kts 251°
2026-04-28 20:52 43.10059 -83.28351 23885 ft 295 kts 251°
2026-04-28 20:52 43.09316 -83.30950 23886 ft 295 kts 251°
2026-04-28 20:52 43.08567 -83.33570 23889 ft 295 kts 252°
2026-04-28 20:53 43.07081 -83.38758 23888 ft 295 kts 251°
2026-04-28 20:53 43.06336 -83.41355 23885 ft 295 kts 252°
2026-04-28 20:53 43.05591 -83.43949 23890 ft 294 kts 251°
2026-04-28 20:54 43.04847 -83.46539 23897 ft 294 kts 251°
2026-04-28 20:54 43.04102 -83.49125 23899 ft 294 kts 251°
2026-04-28 20:54 43.03351 -83.51734 23895 ft 294 kts 251°
2026-04-28 20:54 43.02606 -83.54317 23891 ft 294 kts 251°
2026-04-28 20:55 43.01862 -83.56895 23897 ft 293 kts 251°
2026-04-28 20:55 43.01117 -83.59472 23915 ft 293 kts 251°
2026-04-28 20:55 43.00373 -83.62046 23916 ft 292 kts 251°
2026-04-28 20:55 42.99627 -83.64620 23918 ft 292 kts 251°
2026-04-28 20:56 42.98882 -83.67191 23917 ft 293 kts 251°
2026-04-28 20:56 42.98131 -83.69782 23913 ft 293 kts 251°
2026-04-28 20:56 42.97383 -83.72356 23917 ft 293 kts 251°
2026-04-28 20:56 42.96659 -83.74940 23916 ft 293 kts 253°
2026-04-28 20:57 42.96090 -83.77591 23925 ft 292 kts 256°
2026-04-28 20:57 42.95561 -83.80253 23923 ft 292 kts 256°
2026-04-28 20:57 42.95032 -83.82912 23924 ft 292 kts 256°
2026-04-28 20:57 42.94503 -83.85567 23920 ft 292 kts 256°
2026-04-28 20:58 42.93966 -83.88245 23925 ft 292 kts 256°
2026-04-28 20:58 42.93433 -83.90899 23925 ft 292 kts 256°
2026-04-28 20:58 42.92897 -83.93557 23921 ft 292 kts 256°
2026-04-28 20:58 42.92362 -83.96210 23924 ft 292 kts 256°
2026-04-28 20:59 42.91825 -83.98865 23921 ft 292 kts 256°
2026-04-28 20:59 42.91287 -84.01517 23923 ft 291 kts 256°
2026-04-28 20:59 42.90749 -84.04166 23927 ft 291 kts 256°
2026-04-28 20:59 42.90206 -84.06837 23929 ft 291 kts 256°
2026-04-28 21:00 42.89666 -84.09489 23932 ft 291 kts 256°
2026-04-28 21:00 42.89122 -84.12152 23927 ft 291 kts 256°
2026-04-28 21:00 42.88583 -84.14794 23929 ft 291 kts 256°
2026-04-28 21:00 42.88042 -84.17440 23928 ft 291 kts 256°
2026-04-28 21:01 42.87500 -84.20083 23932 ft 291 kts 256°
2026-04-28 21:01 42.86960 -84.22719 23935 ft 290 kts 256°
2026-04-28 21:01 42.86413 -84.25381 23938 ft 290 kts 256°
2026-04-28 21:01 42.85871 -84.28015 23933 ft 290 kts 256°
2026-04-28 21:02 42.85329 -84.30649 23938 ft 290 kts 256°
2026-04-28 21:02 42.84784 -84.33292 23931 ft 290 kts 256°
2026-04-28 21:02 42.84241 -84.35922 23937 ft 290 kts 256°
2026-04-28 21:02 42.83696 -84.38556 23941 ft 290 kts 256°
2026-04-28 21:03 42.83151 -84.41193 23932 ft 290 kts 256°
2026-04-28 21:03 42.82605 -84.43822 23934 ft 290 kts 256°
2026-04-28 21:03 42.82056 -84.46468 23946 ft 290 kts 256°
2026-04-28 21:03 42.81510 -84.49094 23942 ft 290 kts 256°
2026-04-28 21:04 42.80964 -84.51720 23943 ft 289 kts 256°
2026-04-28 21:04 42.80417 -84.54345 23948 ft 289 kts 256°
2026-04-28 21:04 42.79871 -84.56964 23944 ft 289 kts 256°
2026-04-28 21:04 42.79323 -84.59588 23947 ft 289 kts 256°
2026-04-28 21:05 42.78775 -84.62206 23953 ft 289 kts 256°
2026-04-28 21:05 42.78223 -84.64845 23945 ft 289 kts 256°
2026-04-28 21:05 42.77674 -84.67464 23952 ft 289 kts 256°
2026-04-28 21:05 42.77123 -84.70090 23949 ft 290 kts 255°
2026-04-28 21:06 42.76571 -84.72715 23945 ft 290 kts 256°
2026-04-28 21:06 42.76018 -84.75341 23944 ft 290 kts 256°
2026-04-28 21:06 42.75465 -84.77965 23950 ft 290 kts 255°
2026-04-28 21:06 42.74911 -84.80593 23936 ft 290 kts 256°
2026-04-28 21:07 42.74352 -84.83237 23953 ft 290 kts 256°
2026-04-28 21:07 42.73797 -84.85864 23958 ft 290 kts 255°
2026-04-28 21:07 42.73240 -84.88490 23944 ft 290 kts 256°
2026-04-28 21:07 42.72684 -84.91113 23945 ft 290 kts 255°
2026-04-28 21:08 42.72126 -84.93742 23946 ft 290 kts 255°
2026-04-28 21:08 42.71569 -84.96363 23946 ft 290 kts 255°
2026-04-28 21:08 42.71011 -84.98982 23951 ft 290 kts 256°
2026-04-28 21:08 42.70449 -85.01619 23950 ft 290 kts 255°
2026-04-28 21:09 42.69892 -85.04232 23951 ft 290 kts 256°
2026-04-28 21:09 42.69333 -85.06847 23948 ft 290 kts 255°
2026-04-28 21:09 42.68774 -85.09460 23952 ft 289 kts 255°
2026-04-28 21:09 42.68215 -85.12070 23951 ft 289 kts 255°
2026-04-28 21:10 42.67655 -85.14678 23948 ft 289 kts 255°
2026-04-28 21:10 42.67095 -85.17287 23946 ft 289 kts 255°
2026-04-28 21:10 42.66531 -85.19914 23955 ft 289 kts 256°
2026-04-28 21:10 42.65971 -85.22515 23961 ft 288 kts 256°
2026-04-28 21:11 42.65410 -85.25117 23951 ft 288 kts 256°
2026-04-28 21:11 42.64849 -85.27717 23949 ft 289 kts 256°
2026-04-28 21:11 42.64287 -85.30318 23953 ft 288 kts 255°
2026-04-28 21:11 42.63725 -85.32915 23952 ft 288 kts 256°
2026-04-28 21:12 42.63163 -85.35509 23961 ft 288 kts 256°
2026-04-28 21:12 42.62596 -85.38124 23960 ft 288 kts 255°
2026-04-28 21:12 42.62032 -85.40722 23960 ft 288 kts 255°
2026-04-28 21:12 42.61469 -85.43312 23958 ft 287 kts 255°
2026-04-28 21:13 42.60906 -85.45901 23957 ft 287 kts 256°
2026-04-28 21:13 42.60342 -85.48487 23956 ft 287 kts 255°
2026-04-28 21:13 42.59779 -85.51070 23966 ft 287 kts 255°
2026-04-28 21:13 42.59215 -85.53652 23964 ft 287 kts 255°
2026-04-28 21:14 42.58650 -85.56233 23964 ft 287 kts 255°
2026-04-28 21:14 42.58081 -85.58832 23968 ft 286 kts 255°
2026-04-28 21:14 42.57517 -85.61407 23967 ft 286 kts 255°
2026-04-28 21:14 42.56951 -85.63984 23960 ft 286 kts 255°
2026-04-28 21:15 42.56386 -85.66556 23970 ft 286 kts 255°
2026-04-28 21:15 42.55819 -85.69133 23971 ft 286 kts 255°
2026-04-28 21:15 42.55252 -85.71708 23965 ft 287 kts 255°
2026-04-28 21:15 42.54683 -85.74286 23963 ft 287 kts 255°
2026-04-28 21:16 42.54109 -85.76887 23962 ft 287 kts 255°
2026-04-28 21:16 42.53538 -85.79470 23969 ft 287 kts 255°
2026-04-28 21:16 42.52966 -85.82054 23975 ft 287 kts 255°
2026-04-28 21:16 42.52394 -85.84636 23970 ft 288 kts 255°
2026-04-28 21:17 42.51822 -85.87216 23972 ft 287 kts 255°
2026-04-28 21:17 42.51248 -85.89798 23978 ft 287 kts 254°
2026-04-28 21:17 42.50675 -85.92375 23971 ft 287 kts 255°
2026-04-28 21:17 42.50096 -85.94974 23971 ft 287 kts 255°
2026-04-28 21:18 42.49522 -85.97549 23972 ft 287 kts 255°
2026-04-28 21:18 42.48947 -86.00126 23973 ft 287 kts 255°
2026-04-28 21:18 42.48372 -86.02699 23975 ft 287 kts 255°
2026-04-28 21:18 42.47796 -86.05273 23979 ft 287 kts 255°
2026-04-28 21:19 42.47220 -86.07842 23980 ft 286 kts 254°
2026-04-28 21:19 42.46673 -86.10440 23974 ft 286 kts 258°
2026-04-28 21:19 42.46442 -86.13095 23981 ft 286 kts 265°
2026-04-28 21:19 42.46314 -86.15766 23982 ft 285 kts 265°
2026-04-28 21:20 42.46187 -86.18438 23987 ft 285 kts 265°
2026-04-28 21:20 42.46058 -86.21107 23982 ft 286 kts 265°
2026-04-28 21:20 42.45926 -86.23774 23988 ft 285 kts 265°
2026-04-28 21:20 42.45793 -86.26439 23990 ft 285 kts 265°
2026-04-28 21:21 42.45657 -86.29107 23990 ft 286 kts 265°
2026-04-28 21:21 42.45518 -86.31795 23996 ft 285 kts 265°
2026-04-28 21:21 42.45379 -86.34458 23995 ft 285 kts 265°
2026-04-28 21:21 42.45240 -86.37126 23989 ft 286 kts 265°
2026-04-28 21:22 42.45098 -86.39795 23987 ft 286 kts 265°
2026-04-28 21:22 42.44957 -86.42462 23987 ft 286 kts 265°
2026-04-28 21:22 42.44814 -86.45129 23988 ft 285 kts 265°
2026-04-28 21:22 42.44671 -86.47794 23985 ft 285 kts 265°
2026-04-28 21:23 42.44526 -86.50478 23983 ft 285 kts 265°
2026-04-28 21:23 42.44381 -86.53139 23982 ft 285 kts 265°
2026-04-28 21:23 42.44235 -86.55806 23980 ft 285 kts 265°
2026-04-28 21:23 42.44089 -86.58467 23984 ft 285 kts 265°
2026-04-28 21:24 42.43943 -86.61127 23981 ft 285 kts 265°
2026-04-28 21:24 42.43796 -86.63786 23926 ft 287 kts 265°
2026-04-28 21:24 42.43646 -86.66481 23457 ft 289 kts 264°
2026-04-28 21:24 42.43491 -86.69208 22948 ft 291 kts 264°
2026-04-28 21:25 42.43336 -86.71923 22446 ft 292 kts 265°
2026-04-28 21:25 42.43181 -86.74648 21948 ft 293 kts 264°
2026-04-28 21:25 42.43026 -86.77379 21445 ft 294 kts 265°
2026-04-28 21:25 42.42870 -86.80118 20935 ft 294 kts 265°
2026-04-28 21:26 42.42713 -86.82862 20427 ft 295 kts 264°
2026-04-28 21:26 42.42555 -86.85607 19933 ft 295 kts 265°
2026-04-28 21:26 42.42396 -86.88374 19416 ft 295 kts 265°
2026-04-28 21:26 42.42237 -86.91121 18948 ft 295 kts 265°
2026-04-28 21:27 42.42077 -86.93873 18450 ft 295 kts 264°
2026-04-28 21:27 42.41917 -86.96619 17963 ft 295 kts 264°
2026-04-28 21:27 42.41756 -86.99366 17469 ft 294 kts 265°
2026-04-28 21:27 42.41596 -87.02079 16980 ft 289 kts 264°
2026-04-28 21:28 42.41437 -87.04753 16480 ft 285 kts 265°
2026-04-28 21:28 42.41279 -87.07405 15970 ft 281 kts 265°
2026-04-28 21:28 42.41124 -87.10009 15464 ft 278 kts 265°
2026-04-28 21:28 42.40970 -87.12582 14944 ft 275 kts 265°
2026-04-28 21:29 42.40816 -87.15136 14449 ft 273 kts 265°
2026-04-28 21:29 42.40664 -87.17669 13970 ft 271 kts 265°
2026-04-28 21:29 42.40511 -87.20188 13475 ft 270 kts 265°
2026-04-28 21:29 42.40359 -87.22675 13016 ft 264 kts 265°
2026-04-28 21:30 42.40210 -87.25127 12609 ft 259 kts 265°
2026-04-28 21:30 42.40064 -87.27510 12275 ft 253 kts 265°
2026-04-28 21:30 42.39920 -87.29843 11919 ft 248 kts 265°
2026-04-28 21:30 42.39467 -87.32039 11579 ft 244 kts 240°
2026-04-28 21:31 42.38272 -87.33643 11315 ft 243 kts 223°
2026-04-28 21:31 42.36941 -87.35025 10992 ft 240 kts 222°
2026-04-28 21:31 42.35621 -87.36373 10704 ft 238 kts 222°
2026-04-28 21:31 42.34297 -87.37727 10394 ft 241 kts 222°
2026-04-28 21:32 42.32957 -87.39097 10108 ft 245 kts 222°
2026-04-28 21:32 42.31583 -87.40499 9791 ft 248 kts 221°
2026-04-28 21:32 42.30205 -87.41905 9463 ft 251 kts 221°
2026-04-28 21:32 42.28818 -87.43316 9129 ft 250 kts 221°
2026-04-28 21:33 42.27438 -87.44718 8803 ft 249 kts 221°
2026-04-28 21:33 42.26066 -87.46111 8506 ft 247 kts 221°
2026-04-28 21:33 42.24702 -87.47496 8203 ft 246 kts 221°
2026-04-28 21:33 42.23340 -87.48879 7870 ft 245 kts 221°
2026-04-28 21:34 42.21977 -87.50262 7575 ft 245 kts 220°
2026-04-28 21:34 42.20674 -87.51584 7268 ft 244 kts 220°
2026-04-28 21:34 42.19341 -87.52935 6973 ft 243 kts 220°
2026-04-28 21:34 42.17999 -87.54296 6678 ft 243 kts 220°
2026-04-28 21:35 42.16654 -87.55659 6370 ft 243 kts 220°
2026-04-28 21:35 42.15309 -87.57020 6049 ft 243 kts 220°
2026-04-28 21:35 42.13977 -87.58366 5746 ft 238 kts 220°
2026-04-28 21:35 42.12663 -87.59707 5451 ft 233 kts 223°
2026-04-28 21:36 42.11589 -87.61271 5161 ft 226 kts 236°
2026-04-28 21:36 42.10673 -87.62951 4868 ft 222 kts 237°
2026-04-28 21:36 42.09772 -87.64608 4567 ft 219 kts 237°
2026-04-28 21:36 42.08865 -87.66238 4267 ft 216 kts 236°
2026-04-28 21:37 42.07963 -87.67841 3965 ft 214 kts 236°
2026-04-28 21:37 42.07069 -87.69423 3665 ft 212 kts 236°
2026-04-28 21:37 42.06176 -87.71000 3359 ft 209 kts 236°
2026-04-28 21:37 42.05303 -87.72549 3060 ft 206 kts 236°
2026-04-28 21:38 42.04466 -87.74039 2744 ft 195 kts 238°
2026-04-28 21:38 42.04018 -87.75647 2418 ft 179 kts 264°
2026-04-28 21:38 42.03917 -87.77262 2177 ft 171 kts 266°
2026-04-28 21:38 42.03828 -87.78812 2075 ft 163 kts 265°
2026-04-28 21:39 42.03748 -87.80302 2057 ft 158 kts 266°
2026-04-28 21:39 42.03667 -87.81721 2033 ft 146 kts 266°
2026-04-28 21:39 42.03595 -87.83022 1998 ft 133 kts 266°
2026-04-28 21:39 42.03546 -87.84190 1983 ft 121 kts 274°
2026-04-28 21:40 42.03999 -87.85174 2028 ft 140 kts 319°
2026-04-28 21:40 42.04855 -87.85959 2035 ft 152 kts 322°
2026-04-28 21:40 42.05668 -87.86639 1964 ft 124 kts 321°
2026-04-28 21:40 42.06392 -87.87222 1942 ft 127 kts 322°
2026-04-28 21:41 42.07155 -87.87818 1592 ft 127 kts 322°
2026-04-28 21:41 42.07947 -87.88333 1383 ft 128 kts 327°
2026-04-28 21:41 42.08778 -87.88801 1175 ft 132 kts 331°
2026-04-28 21:41 42.09630 -87.89286 1025 ft 135 kts 332°
2026-04-28 21:42 42.10511 -87.89757 824 ft 139 kts 332°
2026-04-28 21:42 42.11399 -87.90223 650 ft 130 kts 334°
2026-04-28 21:42 42.12024 -87.90551 648 ft 58 kts 337°
2026-04-28 21:42 42.12198 -87.90642 648 ft 0 kts 339°
2026-04-28 21:43 42.12239 -87.90664 648 ft 12 kts 337°
2026-04-28 21:43 42.12283 -87.90688 648 ft 0 kts 338°
2026-04-28 21:43 42.12291 -87.90692 648 ft 4 kts 338°
2026-04-28 21:44 42.12318 -87.90690 648 ft 5 kts 17°
2026-04-28 21:44 42.12344 -87.90653 648 ft 7 kts 68°
2026-04-28 21:44 42.12356 -87.90584 648 ft 8 kts 104°
2026-04-28 21:44 42.12311 -87.90542 648 ft 8 kts 158°
2026-04-28 21:45 42.12265 -87.90519 648 ft 7 kts 161°
2026-04-28 21:45 42.12224 -87.90500 648 ft 6 kts 160°
2026-04-28 21:45 42.12190 -87.90484 648 ft 3 kts 162°
2026-04-28 21:45 42.12185 -87.90482 648 ft 3 kts 156°
2026-04-28 21:46 42.12114 -87.90439 648 ft 16 kts 159°
2026-04-28 21:46 42.12015 -87.90387 648 ft 14 kts 159°
2026-04-28 21:46 42.11929 -87.90342 648 ft 12 kts 158°
2026-04-28 21:46 42.11844 -87.90297 648 ft 14 kts 158°
2026-04-28 21:47 42.11756 -87.90252 649 ft 13 kts 158°
2026-04-28 21:47 42.11680 -87.90210 649 ft 11 kts 158°
2026-04-28 21:47 42.11601 -87.90169 649 ft 14 kts 159°
2026-04-28 21:47 42.11561 -87.90102 649 ft 11 kts 71°
2026-04-28 21:48 42.11607 -87.90057 649 ft 8 kts 340°
2026-04-28 21:48 42.11661 -87.90087 649 ft 8 kts 336°
2026-04-28 21:48 42.11695 -87.90052 648 ft 5 kts 75°
2026-04-28 21:48 42.11675 -87.90023 648 ft 5 kts 158°
2026-04-28 21:49 42.11654 -87.90011 648 ft 0 kts 158°